Weather History for K4BM - March, 2014

Change the Weather History Date:

Friday, March 14, 2014

  Actual Average (KCOS) Record (KCOS)
Temperature  
Mean Temperature 28 °F 39 °F  
Max Temperature 37 °F 52 °F 75 °F (1935)
Min Temperature 19 °F 26 °F -6 °F (1895)
Degree Days  
Heating Degree Days 37 26  
Month to date heating degree days 393  
Since 1 July heating degree days 4956  
Cooling Degree Days 0 0  
Month to date cooling degree days 0  
Year to date cooling degree days 0  
Moisture  
Dew Point 9 °F    
Average Humidity 47    
Maximum Humidity 63    
Minimum Humidity 31    
Precipitation  
Precipitation 0.00 in 0.03 in 0.43 in (1996)
Month to date precipitation 0.40  
Year to date precipitation 1.06  
Snow  
Snow 0.00 in 0.30 in 4.60 in (1937)
Month to date snowfall 3.4  
Since 1 July snowfall 27.4  
Snow Depth -    
Sea Level Pressure  
Sea Level Pressure 30.11 in    
Wind  
Wind Speed 9 mph (West)    
Max Wind Speed 15 mph    
Max Gust Speed 25 mph    
Visibility 10 miles    
Events      
T = Trace of Precipitation, MM = Missing Value Source: NWS Daily Summary

Daily Weather History Graph

Daily Weather History Graph

Search for Another Location

Airport or City:

Trip Planner

Search our weather history database for the weather conditions in past years. The results will help you decide how hot, cold, wet, or windy it might be!

Date:

Astronomy

Mar. 14, 2014 Rise Set
Actual Time 7:14 AM MDT 7:08 PM MDT
Civil Twilight 6:48 AM MDT 7:34 PM MDT
Nautical Twilight 6:17 AM MDT 8:05 PM MDT
Astronomical Twilight 5:45 AM MDT 8:37 PM MDT
Moon 5:33 PM MDT (3/14) 5:55 AM MDT (3/14)
Length of Visible Light 12h 46m
Length of Day
11h 53m
Waxing Gibbous, 96% of the Moon is Illuminated
Mar 14
Waxing Gibbous
Mar 16
Full
Mar 23
Last Quarter
Mar 30
New
Apr 7
First Quarter

Hourly Weather History & Observations

Time (MDT) Temp. Windchill Dew Point Humidity Pressure Visibility Wind Dir Wind Speed Gust Speed Precip Events Conditions
12:00 AM 23.0 °F 10.6 °F 8.6 °F 54% 30.07 in 10.0 mi NW 13.8 mph 21.9 mph N/A   Clear
12:20 AM 23.0 °F 13.9 °F 10.4 °F 59% 30.08 in 10.0 mi NNW 8.1 mph 17.3 mph N/A   Clear
12:40 AM 23.0 °F 11.1 °F 10.4 °F 59% 30.08 in 10.0 mi NW 12.7 mph 19.6 mph N/A   Clear
1:00 AM 23.0 °F 11.1 °F 10.4 °F 59% 30.08 in 10.0 mi NNW 12.7 mph 23.0 mph N/A   Clear
1:20 AM 23.0 °F 11.7 °F 12.2 °F 63% 30.08 in 10.0 mi North 11.5 mph 19.6 mph N/A   Clear
1:40 AM 23.0 °F 10.6 °F 10.4 °F 59% 30.09 in 10.0 mi North 13.8 mph 21.9 mph N/A   Clear
2:00 AM 23.0 °F 10.1 °F 10.4 °F 59% 30.09 in 10.0 mi North 15.0 mph 24.2 mph N/A   Clear
2:20 AM 23.0 °F 11.1 °F 10.4 °F 59% 30.09 in 10.0 mi North 12.7 mph 21.9 mph N/A   Clear
2:40 AM 21.2 °F 8.3 °F 10.4 °F 63% 30.08 in 10.0 mi North 13.8 mph 19.6 mph N/A   Scattered Clouds
3:00 AM 21.2 °F 10.1 °F 8.6 °F 58% 30.07 in 10.0 mi North 10.4 mph 18.4 mph N/A   Scattered Clouds
3:20 AM 21.2 °F 10.1 °F 8.6 °F 58% 30.07 in 10.0 mi NNW 10.4 mph 18.4 mph N/A   Scattered Clouds
3:40 AM 21.2 °F 10.9 °F 8.6 °F 58% 30.07 in 10.0 mi North 9.2 mph 18.4 mph N/A   Clear
3:59 AM 21.2 °F 8.9 °F 8.6 °F 58% 30.07 in 10.0 mi NNE 12.7 mph 17.3 mph N/A   Scattered Clouds
4:20 AM 21.2 °F 12.6 °F 6.8 °F 54% 30.08 in 10.0 mi NNW 6.9 mph 18.4 mph N/A   Scattered Clouds
4:40 AM 21.2 °F - 8.6 °F 58% 30.09 in 10.0 mi Calm Calm - N/A   Scattered Clouds
4:59 AM 21.2 °F 16.4 °F 8.6 °F 58% 30.09 in 10.0 mi SW 3.5 mph - N/A   Clear
5:19 AM 19.4 °F - 8.6 °F 63% 30.09 in 10.0 mi Calm Calm - N/A   Scattered Clouds
5:40 AM 21.2 °F 13.6 °F 6.8 °F 54% 30.10 in 10.0 mi NNW 5.8 mph - N/A   Scattered Clouds
6:00 AM 19.4 °F 10.4 °F 6.8 °F 58% 30.10 in 10.0 mi West 6.9 mph - N/A   Clear
6:20 AM 21.2 °F 16.4 °F 3.2 °F 46% 30.10 in 10.0 mi NW 3.5 mph - N/A   Clear
6:40 AM 21.2 °F 14.9 °F 3.2 °F 46% 30.10 in 10.0 mi NNW 4.6 mph - N/A   Clear
6:59 AM 21.2 °F 11.7 °F 1.4 °F 42% 30.12 in 10.0 mi NNW 8.1 mph 18.4 mph N/A   Clear
7:20 AM 19.4 °F 10.4 °F 1.4 °F 46% 30.12 in 10.0 mi West 6.9 mph - N/A   Clear
7:40 AM 21.2 °F 13.6 °F 1.4 °F 42% 30.12 in 10.0 mi NW 5.8 mph - N/A   Clear
7:59 AM 21.2 °F 13.6 °F 1.4 °F 42% 30.13 in 10.0 mi WNW 5.8 mph - N/A   Clear
8:20 AM 21.2 °F 11.7 °F 3.2 °F 46% 30.14 in 10.0 mi West 8.1 mph - N/A   Clear
8:40 AM 23.0 °F 15.8 °F 3.2 °F 43% 30.14 in 10.0 mi West 5.8 mph - N/A   Clear
9:00 AM 23.0 °F 17.0 °F 8.6 °F 54% 30.14 in 10.0 mi WSW 4.6 mph - N/A   Clear
9:20 AM 23.0 °F 18.4 °F 8.6 °F 54% 30.14 in 10.0 mi WSW 3.5 mph - N/A   Clear
9:39 AM 26.6 °F - 5.0 °F 40% 30.15 in 10.0 mi Calm Calm - N/A   Clear
10:00 AM 26.6 °F 21.2 °F 10.4 °F 51% 30.15 in 10.0 mi SSW 4.6 mph - N/A   Clear
10:20 AM 28.4 °F 23.3 °F 10.4 °F 47% 30.15 in 10.0 mi SSW 4.6 mph - N/A   Clear
10:40 AM 28.4 °F 22.2 °F 10.4 °F 47% 30.15 in 10.0 mi SSW 5.8 mph - N/A   Clear
11:00 AM 30.2 °F 23.4 °F 10.4 °F 44% 30.15 in 10.0 mi SSW 6.9 mph - N/A   Clear
11:20 AM 30.2 °F 22.6 °F 14.0 °F 51% 30.14 in 10.0 mi SW 8.1 mph 16.1 mph N/A   Clear
11:40 AM 32.0 °F 23.6 °F 14.0 °F 48% 30.14 in 10.0 mi SW 10.4 mph 17.3 mph N/A   Clear
12:00 PM 32.0 °F 23.0 °F 14.0 °F 48% 30.14 in 10.0 mi SW 11.5 mph 17.3 mph N/A   Clear
12:20 PM 32.0 °F 23.6 °F 14.0 °F 48% 30.14 in 10.0 mi SW 10.4 mph 18.4 mph N/A   Clear
12:40 PM 33.8 °F 25.3 °F 14.0 °F 44% 30.14 in 10.0 mi SW 11.5 mph 17.3 mph N/A   Clear
1:00 PM 33.8 °F 25.8 °F 12.2 °F 41% 30.14 in 10.0 mi SW 10.4 mph 18.4 mph N/A   Clear
1:19 PM 33.8 °F 25.8 °F 12.2 °F 41% 30.14 in 10.0 mi SW 10.4 mph 16.1 mph N/A   Clear
1:40 PM 33.8 °F 25.3 °F 12.2 °F 41% 30.13 in 10.0 mi SW 11.5 mph 19.6 mph N/A   Clear
2:00 PM 37.4 °F 30.3 °F 14.0 °F 38% 30.13 in 10.0 mi SW 10.4 mph 16.1 mph N/A   Clear
2:20 PM 37.4 °F 31.4 °F 14.0 °F 38% 30.12 in 10.0 mi SW 8.1 mph - N/A   Clear
2:39 PM 35.6 °F 28.6 °F 14.0 °F 41% 30.12 in 10.0 mi SW 9.2 mph 16.1 mph N/A   Clear
3:00 PM 35.6 °F 29.9 °F 14.0 °F 41% 30.12 in 10.0 mi SSW 6.9 mph - N/A   Clear
3:20 PM 35.6 °F 29.9 °F 12.2 °F 38% 30.12 in 10.0 mi SW 6.9 mph - N/A   Clear
3:39 PM 35.6 °F 31.7 °F 12.2 °F 38% 30.12 in 10.0 mi SW 4.6 mph - N/A   Clear
3:59 PM 35.6 °F 29.9 °F 10.4 °F 35% 30.12 in 10.0 mi SW 6.9 mph - N/A   Clear
4:20 PM 35.6 °F 30.7 °F 10.4 °F 35% 30.12 in 10.0 mi SW 5.8 mph - N/A   Clear
4:40 PM 35.6 °F 29.9 °F 10.4 °F 35% 30.11 in 10.0 mi SW 6.9 mph - N/A   Clear
5:00 PM 35.6 °F 30.7 °F 10.4 °F 35% 30.10 in 10.0 mi SW 5.8 mph - N/A   Clear
5:19 PM 33.8 °F 30.8 °F 10.4 °F 38% 30.10 in 10.0 mi SW 3.5 mph - N/A   Clear
5:40 PM 33.8 °F 27.0 °F 12.2 °F 41% 30.10 in 10.0 mi SW 8.1 mph - N/A   Clear
6:00 PM 32.0 °F 24.8 °F 12.2 °F 44% 30.10 in 10.0 mi SSW 8.1 mph - N/A   Clear
6:20 PM 32.0 °F 26.4 °F 12.2 °F 44% 30.10 in 10.0 mi SSW 5.8 mph - N/A   Clear
6:40 PM 32.0 °F 25.6 °F 12.2 °F 44% 30.10 in 10.0 mi SW 6.9 mph - N/A   Clear
7:00 PM 30.2 °F 23.4 °F 10.4 °F 44% 30.10 in 10.0 mi SW 6.9 mph - N/A   Clear
7:20 PM 28.4 °F 22.2 °F 8.6 °F 43% 30.10 in 10.0 mi WSW 5.8 mph - N/A   Clear
7:40 PM 28.4 °F 19.7 °F 5.0 °F 37% 30.10 in 10.0 mi West 9.2 mph 16.1 mph N/A   Clear
8:00 PM 28.4 °F 19.7 °F 3.2 °F 34% 30.10 in 10.0 mi West 9.2 mph 19.6 mph N/A   Clear
8:20 PM 28.4 °F 19.1 °F 3.2 °F 34% 30.10 in 10.0 mi WNW 10.4 mph 18.4 mph N/A   Clear
8:40 PM 28.4 °F 19.7 °F 3.2 °F 34% 30.10 in 10.0 mi WNW 9.2 mph 19.6 mph N/A   Clear
9:00 PM 28.4 °F 20.4 °F 1.4 °F 31% 30.10 in 10.0 mi WNW 8.1 mph 16.1 mph N/A   Clear
9:20 PM 26.6 °F 16.8 °F 3.2 °F 37% 30.10 in 10.0 mi WNW 10.4 mph 18.4 mph N/A   Clear
9:40 PM 26.6 °F 16.8 °F 5.0 °F 40% 30.10 in 10.0 mi WNW 10.4 mph 21.9 mph N/A   Clear
10:00 PM 26.6 °F 16.2 °F 8.6 °F 47% 30.09 in 10.0 mi West 11.5 mph 21.9 mph N/A   Clear
10:20 PM 26.6 °F 17.5 °F 8.6 °F 47% 30.09 in 10.0 mi West 9.2 mph 23.0 mph N/A   Clear
10:40 PM 26.6 °F 16.2 °F 8.6 °F 47% 30.08 in 10.0 mi West 11.5 mph 21.9 mph N/A   Clear
11:00 PM 26.6 °F 16.2 °F 8.6 °F 47% 30.08 in 10.0 mi West 11.5 mph 25.3 mph N/A   Clear
11:20 PM 24.8 °F 13.4 °F 8.6 °F 50% 30.07 in 10.0 mi WNW 12.7 mph 20.7 mph N/A   Clear
11:40 PM 24.8 °F 13.4 °F 8.6 °F 50% 30.07 in 10.0 mi West 12.7 mph 21.9 mph N/A   Clear